Location: ????????
(55.4000°N, 39.1167°E)
Time: 04:23:47
(UTC+00:00)

Landsat 5 - Pass Details

Date: 19 May 2025
Orbit: 510 x 610 km, 98.1° (Epoch: 15 June)

Event Time Altitude Azimuth Distance (km) Brightness Sun altitude
Rises 20:15:17 0° 18° (NNE) 2,804 7.9 -13.4°
Reaches altitude 10° 20:17:29 10° 24° (NNE) 1,915 6.9 -13.5°
Maximum altitude 20:21:33 52° 101° (E) 749 3.8 -13.6°
Enters shadow 20:24:01 22° 169° (S) 1,309 4.6 -13.7°
